Location: Beetenbrück
(52.8113°N, 9.5946°E)
Time: 16:45:21
(UTC+00:00)

USA 238 DEB - Pass Details

Date: 14 April 2026
Orbit: 883 x 1328 km, 63.4° (Epoch: 10 January)

Event Time Altitude Azimuth Distance (km) Brightness Sun altitude
Rises 19:04:45 0° 310° (NW) 3,870 8.5 -7.2°
Reaches altitude 10° 19:07:19 10° 313° (NW) 2,974 7.5 -7.6°
Maximum altitude 19:14:29 71° 38° (NE) 1,263 4.1 -8.5°
Enters shadow 19:22:04 11° 122° (ESE) 3,158 5.5 -9.5°
